Location: Bazugues
(43.4465°N, 0.3432°E)
Time: 23:05:15
(UTC+00:00)

Cosmos 2074 Rocket - Visible Passes

Search period start: 18 April 2026 00:00
Search period end: 28 April 2026 00:00
Orbit: 967 x 985 km, 82.9° (Epoch: 18 April)

Date Brightness Start Highest point End Pass type
(mag) Time Alt. Az. Time Alt. Az. Time Alt. Az.
18 Apr 7.0 20:32:15 10° W 20:35:49 15° WNW 20:39:24 10° NNW visible
19 Apr 7.5 03:55:20 10° NE 03:57:51 12° ENE 04:00:20 10° E visible
19 Apr 5.0 19:09:00 10° SSW 19:15:05 54° WNW 19:21:14 10° N visible
20 Apr 6.9 04:19:08 10° NNE 04:23:54 22° ENE 04:28:39 10° ESE visible
20 Apr 6.1 19:35:22 10° SW 19:40:48 31° WNW 19:46:18 10° N visible
21 Apr 7.0 20:02:37 10° WSW 20:06:43 18° WNW 20:10:52 10° NNW visible
22 Apr 7.6 03:27:37 10° NE 03:28:44 10° ENE 03:29:50 10° ENE visible
23 Apr 6.9 03:50:29 10° NNE 03:54:51 19° ENE 03:59:11 10° ESE visible
24 Apr 6.1 04:15:08 10° N 04:20:45 33° ENE 04:26:19 10° SE visible
24 Apr 6.9 19:33:06 10° WSW 19:37:39 21° WNW 19:42:15 10° NNW visible
25 Apr 7.6 20:01:43 10° W 20:03:44 12° WNW 20:05:46 10° NW visible
26 Apr 6.9 03:21:54 10° NNE 03:25:46 17° ENE 03:29:37 10° ESE visible
27 Apr 6.2 03:46:21 10° NNE 03:51:44 29° ENE 03:57:03 10° SE visible
